Location: Praha
(50.0830°N, 14.4670°E)
Time: 01:31:43
(UTC+01:00)

ISS - Pass Details

Date: 24 May 2018
Orbit: 402 x 408 km, 51.6° (Epoch: 15 November)

Event Time Altitude Azimuth Distance (km) Brightness Sun altitude
Rises 01:22:18 0° 285° (WNW) 2,324 0.1 -19.0°
Reaches altitude 10° 01:24:23 10° 285° (WNW) 1,461 -0.9 -19.0°
Maximum altitude 01:27:40 89° 7° (N) 408 -4.0 -18.9°
Enters shadow 01:28:53 35° 106° (ESE) 666 -2.9 -18.9°
